This demonstration page uses our WeatherBlox Daily Observations layout. Learn more.

Left ArrowRight Arrow

Hourly Observations for July 11, 2018

Temp ( °F °C ) Dew Point ( °F °C ) Humidity (%) Winds ( mph kmh ) Pressure ( in mb ) Visibility ( mi km ) Precip ( " mm )
12:53 am 00:53 Clear 73 22.8 47 8.3 40 40 N 3 6 29.85 1011 10 16 0.00 0.00
1:53 am 01:53 Clear 73 22.8 47 8.3 40 40 Calm 29.85 1011 10 16 0.00 0.00
2:53 am 02:53 Clear 70 21.1 48 8.9 46 46 NNW 5 7 29.84 1011 10 16 0.00 0.00
3:53 am 03:53 Clear 69 20.6 49 9.4 49 49 Calm 29.85 1011 10 16 0.00 0.00
4:53 am 04:53 Clear 65 18.3 49 9.4 56 56 Calm 29.85 1011 10 16 0.00 0.00
5:53 am 05:53 Sunny 65 18.3 50 10 59 59 Calm 29.85 1011 10 16 0.00 0.00
6:53 am 06:53 Sunny 68 20 50 10 53 53 ENE 3 6 29.85 1011 10 16 0.00 0.00
7:53 am 07:53 Sunny 74 23.3 50 10 43 43 Calm 29.84 1011 10 16 0.00 0.00
8:53 am 08:53 Sunny 82 27.8 51 10.6 34 34 Calm 29.84 1011 10 16 0.00 0.00
9:53 am 09:53 Sunny 90 32.2 51 10.6 26 26 VRB 6 9 29.83 1010 10 16 0.00 0.00
10:53 am 10:53 Sunny 91 32.8 52 11.1 26 26 SSW 6 9 29.83 1010 10 16 0.00 0.00
11:53 am 11:53 Sunny 95 35 53 11.7 24 24 SSW 6 9 29.81 1009 10 16 0.00 0.00
12:53 pm 12:53 Sunny 97 36.1 49 9.4 20 20 S 8 13 29.80 1009 10 16 0.00 0.00
1:53 pm 13:53 Sunny 101 38.3 44 6.7 14 14 SE 9 15 29.78 1008 10 16 0.00 0.00
2:10 pm 14:10 Sunny 100 38 45 7 15 15 SSE 6 9 29.85 1011 10 16 0.00 0.00
2:18 pm 14:18 Sunny 100 38 45 7 15 15 S 6 9 29.77 1008 10 16 0.00 0.00
2:53 pm 14:53 Sunny 102 38.9 43 6.1 13 13 S 6 9 29.76 1008 10 16 0.00 0.00
3:53 pm 15:53 Sunny 104 40 42 5.6 12 12 SSE 8 13 29.74 1007 10 16 0.00 0.00
4:53 pm 16:53 Sunny 103 39.4 42 5.6 12 12 SSE 9 15 29.72 1007 10 16 0.00 0.00
5:53 pm 17:53 Sunny 103 39.4 37 2.8 10 10 SSE 12 19 29.71 1006 10 16 0.00 0.00
6:53 pm 18:53 Sunny 101 38.3 34 1.1 10 10 SSE 10 17 29.70 1006 10 16 0.00 0.00
7:53 pm 19:53 Sunny 97 36.1 39 3.9 13 13 SSE 8 13 29.71 1006 10 16 0.00 0.00
8:53 pm 20:53 Clear 90 32.2 42 5.6 19 19 Calm 29.72 1007 10 16 0.00 0.00
9:53 pm 21:53 Clear 83 28.3 42 5.6 24 24 SE 5 7 29.75 1007 10 16 0.00 0.00
10:53 pm 22:53 Clear 83 28.3 43 6.1 24 24 NNE 3 6 29.78 1009 10 16 0.00 0.00
11:53 pm 23:53 Clear 78 25.6 45 7.2 31 31 Calm 29.80 1009 10 16 0.00 0.00

Powered by AerisWeather